Terug naar catalogus

ERNST

ActiefAmateurradioSSO
NORAD 60528·PAYLOAD·🇩🇪 Germany

Gelanceerd Aug 16, 2024 vanaf Vandenberg Space Force Base

Loading…

Volgende Passages (komende 24 uur)

TLE

VersSource: Space-Track

Epoch: Sep 14, 2026, 11:57 UTC

1 60528U 24149BN  26257.49815946  .00010880  00000-0  26343-3 0  9997
2 60528  97.3760 341.9994 0004914 346.4585  13.6529 15.41270693116021

Volg ERNST in realtime met AllMySat

Download on the App Store